OK2WF-5 Weather Reports


time (UTC)temp
F
wind
direction
speed
knots
gust
knots
rain 1hr
in
rain 24hr
in
rain mn
in
humidity
%
barometer
mb
20260508012908 0 45 0.0 0.0 0.00 0.00 0.00 1014.3
20260508012106 0 45 0.0 0.0 0.00 0.00 0.00 1014.3
20260508011303 0 45 0.0 0.9 0.00 0.00 0.00 1014.2
20260508010459 0 90 0.0 0.9 0.00 0.00 0.00 1014.1
20260508005655 0 90 0.0 0.9 0.00 0.00 0.00 1014.0
20260508004850 0 315 0.0 0.9 0.00 0.00 0.00 1013.8
20260508004049 0 90 0.9 0.9 0.00 0.00 0.00 1013.8
20260508003243 0 90 0.9 0.9 0.00 0.00 0.00 1013.8
20260508002441 0 90 0.0 1.7 0.00 0.00 0.00 1013.7
20260508001636 0 90 0.9 0.9 0.00 0.00 0.00 1013.5
20260508000830 0 90 0.0 0.9 0.00 0.00 0.00 1013.4
20260508000027 0 90 0.9 0.9 0.00 0.00 0.00 1013.3
20260507235223 0 225 0.0 0.9 0.00 0.00 0.00 1013.3
20260507234420 0 45 0.0 0.0 0.00 0.00 0.00 1013.3
20260507233619 0 90 0.0 0.9 0.00 0.00 0.00 1013.4
20260507232815 0 90 0.0 0.0 0.00 0.00 0.00 1013.2
20260507232009 0 135 0.0 0.0 0.00 0.00 0.00 1013.3
20260507231203 0 90 0.0 0.9 0.00 0.00 0.00 1013.3
20260507230357 0 90 0.0 0.9 0.00 0.00 0.00 1013.2
20260507225550 0 90 0.9 1.7 0.00 0.00 0.00 1013.3
20260507224744 0 180 0.0 1.7 0.00 0.00 0.00 1013.2
20260507223941 0 180 0.0 1.7 0.00 0.00 0.00 1013.2
20260507223135 0 90 1.7 1.7 0.00 0.00 0.00 1013.0
20260507222334 0 270 0.9 2.6 0.00 0.00 0.00 1013.0
20260507221528 0 90 0.0 0.9 0.00 0.00 0.00 1013.0
20260507220724 0 315 0.0 0.0 0.00 0.00 0.00 1013.0
20260507215921 0 45 0.0 0.9 0.00 0.00 0.00 1013.0
20260507215115 0 90 0.0 2.6 0.00 0.00 0.00 1013.0
20260507214310 0 90 0.9 1.7 0.00 0.00 0.00 1013.0
20260507213509 0 90 0.0 0.9 0.00 0.00 0.00 1012.9
20260507212706 0 90 0.9 2.6 0.00 0.00 0.00 1012.9
20260507211902 0 315 0.9 1.7 0.00 0.00 0.00 1012.8
20260507211058 0 45 0.0 1.7 0.00 0.00 0.00 1012.8
20260507210254 0 90 2.6 2.6 0.00 0.00 0.00 1012.8
20260507205448 0 90 0.0 1.7 0.00 0.00 0.00 1012.5
20260507204645 0 315 0.9 2.6 0.00 0.00 0.00 1012.5
20260507203841 0 45 0.9 3.5 0.00 0.00 0.00 1012.4
20260507203035 0 45 0.9 3.5 0.00 0.00 0.00 1012.2
20260507202227 0 90 0.9 3.5 0.00 0.00 0.00 1012.0
20260507201425 0 90 0.9 5.2 0.00 0.00 0.00 1012.0
20260507200618 0 90 0.9 3.5 0.00 0.00 0.00 1011.9
20260507195813 0 45 0.9 3.5 0.00 0.00 0.00 1011.7
20260507195009 0 270 0.9 2.6 0.00 0.00 0.00 1011.6
20260507194205 0 90 1.7 3.5 0.00 0.00 0.00 1011.6
20260507193401 0 90 0.9 1.7 0.00 0.00 0.00 1011.6
20260507192554 0 315 0.9 0.9 0.00 0.00 0.00 1011.6
20260507191747 0 90 0.0 0.9 0.00 0.00 0.00 1011.5
20260507190940 0 90 0.9 0.9 0.00 0.00 0.00 1011.4
20260507190134 0 45 0.9 1.7 0.00 0.00 0.00 1011.2
20260507185327 0 90 0.0 1.7 0.00 0.00 0.00 1011.0
20260507184520 0 90 0.9 0.9 0.00 0.00 0.00 1010.6
20260507183709 0 90 0.0 0.0 0.00 0.00 0.00 1010.3
20260507182906 0 90 0.0 0.0 0.00 0.00 0.00 1009.9
20260507182058 0 90 0.0 0.9 0.00 0.00 0.00 1009.7
20260507181250 0 90 0.0 1.7 0.00 0.00 0.00 1009.8
20260507180447 0 135 0.0 0.0 0.00 0.00 0.00 1009.7
20260507175640 0 90 0.0 1.7 0.00 0.00 0.00 1009.5
20260507174835 0 135 0.0 1.7 0.00 0.00 0.00 1009.5
20260507174026 0 270 0.0 2.6 0.00 0.00 0.00 1009.4
20260507173221 0 135 0.0 1.7 0.00 0.00 0.00 1009.3
20260507172416 0 180 0.0 1.7 0.00 0.00 0.00 1009.1
20260507171614 0 225 0.0 3.5 0.00 0.00 0.00 1009.1
20260507170812 0 45 0.0 1.7 0.00 0.00 0.00 1009.0
20260507170009 0 180 0.0 1.7 0.00 0.00 0.00 1008.8
20260507165205 0 90 0.9 3.5 0.00 0.00 0.00 1008.7
20260507164405 0 68 2.6 3.5 0.00 0.00 0.00 1008.6
20260507163602 0 315 2.6 4.3 0.00 0.00 0.00 1008.6
20260507162758 0 0 2.6 3.5 0.00 0.00 0.00 1008.5
20260507161949 0 45 0.0 2.6 0.00 0.00 0.00 1008.4
20260507161147 0 270 3.5 5.2 0.00 0.00 0.00 1008.4
20260507160342 0 270 1.7 3.5 0.00 0.00 0.00 1008.3
20260507155537 0 135 0.9 7.0 0.00 0.00 0.00 1008.3
20260507154732 0 270 4.3 6.1 0.00 0.00 0.00 1008.1
20260507153928 0 270 1.7 6.1 0.00 0.00 0.00 1007.5
20260507153123 0 90 1.7 5.2 0.00 0.00 0.00 1007.5
20260507152316 0 180 1.7 3.5 0.00 0.00 0.00 1007.5
20260507151502 0 45 0.9 4.3 0.00 0.00 0.00 1007.8
20260507150650 0 293 1.7 10.4 0.00 0.00 0.00 1007.8
20260507145844 0 315 5.2 10.4 0.00 0.00 0.00 1007.9
20260507145039 0 270 2.6 6.1 0.00 0.00 0.00 1007.5
20260507144234 0 315 3.5 7.8 0.00 0.00 0.00 1007.8
20260507143431 0 270 3.5 4.3 0.00 0.00 0.00 1007.7
20260507142625 0 315 0.0 3.5 0.00 0.00 0.00 1008.1
20260507141824 0 270 1.7 3.5 0.00 0.00 0.00 1008.2
20260507141019 0 270 1.7 9.6 0.00 0.00 0.00 1008.2
20260507140212 0 270 2.6 7.0 0.00 0.00 0.00 1007.9
20260507135408 0 270 4.3 5.2 0.00 0.00 0.00 1007.7
20260507134601 0 270 0.9 4.3 0.00 0.00 0.00 1007.6
20260507133759 0 315 0.9 7.8 0.00 0.00 0.00 1007.6
20260507132953 0 315 3.5 8.7 0.00 0.00 0.00 1007.4
20260507132150 0 135 0.9 5.2 0.00 0.00 0.00 1007.7
20260507131346 0 315 3.5 7.0 0.00 0.00 0.00 1007.5
20260507130544 0 315 2.6 7.0 0.00 0.00 0.00 1007.5
20260507125737 0 315 1.7 8.7 0.00 0.00 0.00 1007.8
20260507124936 0 270 6.1 10.4 0.00 0.00 0.00 1007.9
20260507124132 0 225 1.7 7.0 0.00 0.00 0.00 1008.2
20260507123322 0 270 2.6 7.0 0.00 0.00 0.00 1008.1
20260507122509 0 315 4.3 7.8 0.00 0.00 0.00 1008.2
20260507121701 0 315 6.1 9.6 0.00 0.00 0.00 1008.1
20260507120859 0 270 7.8 9.6 0.00 0.00 0.00 1007.9
20260507120053 0 270 6.1 11.3 0.00 0.00 0.00 1008.0
20260507115248 0 203 3.5 11.3 0.00 0.00 0.00 1007.9
20260507114439 0 270 5.2 9.6 0.00 0.00 0.00 1008.1
20260507113632 0 270 2.6 7.0 0.00 0.00 0.00 1008.2
20260507112827 0 270 8.7 10.4 0.00 0.00 0.00 1008.0
20260507112021 0 270 7.0 13.9 0.00 0.00 0.00 1008.1
20260507111214 0 270 4.3 10.4 0.00 0.00 0.00 1008.1
20260507110411 0 270 1.7 13.0 0.00 0.00 0.00 1008.3
20260507105606 0 270 4.3 9.6 0.00 0.00 0.00 1008.2
20260507104800 0 225 2.6 7.8 0.00 0.00 0.00 1008.1
20260507103955 0 225 3.5 8.7 0.00 0.00 0.00 1008.0
20260507103151 0 315 3.5 7.0 0.00 0.00 0.00 1008.0
20260507102345 0 315 3.5 9.6 0.00 0.00 0.00 1008.0
20260507101541 0 315 1.7 7.8 0.00 0.00 0.00 1007.9
20260507100738 0 315 1.7 5.2 0.00 0.00 0.00 1008.2
20260507095935 0 315 2.6 6.1 0.00 0.00 0.00 1008.5
20260507095134 0 270 3.5 7.8 0.00 0.00 0.00 1008.5
20260507094330 0 315 3.5 9.6 0.00 0.00 0.00 1008.4
20260507093524 0 270 2.6 5.2 0.00 0.00 0.00 1008.0
20260507092719 0 270 1.7 5.2 0.00 0.00 0.00 1008.1
20260507091916 0 90 2.6 5.2 0.00 0.00 0.00 1008.0
20260507091110 0 315 2.6 6.1 0.00 0.00 0.00 1008.2
20260507090306 0 270 2.6 4.3 0.00 0.00 0.00 1008.4
20260507085459 0 180 0.9 5.2 0.00 0.00 0.00 1008.1
20260507084652 0 270 4.3 5.2 0.00 0.00 0.00 1008.2
20260507083850 0 270 3.5 5.2 0.00 0.00 0.00 1007.9
20260507083046 0 270 1.7 5.2 0.00 0.00 0.00 1008.0
20260507082240 0 180 1.7 5.2 0.00 0.00 0.00 1008.2
20260507081436 0 270 7.0 7.8 0.00 0.00 0.00 1008.0
20260507080631 0 293 2.6 6.1 0.00 0.00 0.00 1008.1
20260507075828 0 90 0.0 5.2 0.00 0.00 0.00 1007.7
20260507075023 0 315 1.7 6.1 0.00 0.00 0.00 1008.2
20260507074221 0 225 0.0 7.0 0.00 0.00 0.00 1008.4
20260507073417 0 270 2.6 5.2 0.00 0.00 0.00 1008.3
20260507072613 0 315 1.7 4.3 0.00 0.00 0.00 1008.0
20260507071808 0 315 3.5 7.0 0.00 0.00 0.00 1007.9
20260507071003 0 270 1.7 7.0 0.00 0.00 0.00 1007.9
20260507070200 0 270 3.5 5.2 0.00 0.00 0.00 1008.0
20260507065357 0 315 2.6 4.3 0.00 0.00 0.00 1007.8
20260507064555 0 270 0.9 3.5 0.00 0.00 0.00 1008.2
20260507063749 0 270 2.6 4.3 0.00 0.00 0.00 1008.2
20260507062947 0 270 0.9 3.5 0.00 0.00 0.00 1008.1
20260507062143 0 315 0.9 5.2 0.00 0.00 0.00 1008.2
20260507061340 0 315 3.5 4.3 0.00 0.00 0.00 1008.0
20260507060535 0 270 4.3 4.3 0.00 0.00 0.00 1008.0
20260507055730 0 293 1.7 3.5 0.00 0.00 0.00 1008.1
20260507054926 0 270 0.9 3.5 0.00 0.00 0.00 1008.0
20260507054123 0 270 1.7 4.3 0.00 0.00 0.00 1008.0
20260507053319 0 270 2.6 2.6 0.00 0.00 0.00 1008.0
20260507052515 0 225 0.0 2.6 0.00 0.00 0.00 1008.0
20260507051704 0 270 0.9 2.6 0.00 0.00 0.00 1007.9
20260507050852 0 203 0.9 1.7 0.00 0.00 0.00 1008.0
20260507050045 0 270 0.0 0.9 0.00 0.00 0.00 1007.8
20260507045241 0 270 0.9 1.7 0.00 0.00 0.00 1007.7
20260507044439 0 270 0.0 0.9 0.00 0.00 0.00 1007.6
20260507043634 0 180 0.0 1.7 0.00 0.00 0.00 1007.5
20260507042831 0 270 0.9 0.9 0.00 0.00 0.00 1007.4
20260507042024 0 270 0.9 1.7 0.00 0.00 0.00 1007.5
20260507041222 0 270 0.9 0.9 0.00 0.00 0.00 1007.3
20260507040419 0 270 0.0 0.9 0.00 0.00 0.00 1007.1
20260507035613 0 225 0.0 0.0 0.00 0.00 0.00 1007.2
20260507034808 0 270 0.0 2.6 0.00 0.00 0.00 1007.3
20260507034002 0 315 1.7 1.7 0.00 0.00 0.00 1007.4
20260507033158 0 270 0.9 0.9 0.00 0.00 0.00 1007.2
20260507032350 0 270 0.0 0.9 0.00 0.00 0.00 1006.9
20260507031545 0 225 0.0 0.9 0.00 0.00 0.00 1006.6
20260507030739 0 90 0.0 0.9 0.00 0.00 0.00 1006.6
20260507025936 0 315 0.0 0.0 0.00 0.00 0.00 1006.5
20260507025132 0 225 0.0 0.9 0.00 0.00 0.00 1006.5
20260507024328 0 270 0.0 0.9 0.00 0.00 0.00 1006.4
20260507023527 0 90 0.0 0.0 0.00 0.00 0.00 1006.4
20260507022722 0 90 0.0 1.7 0.00 0.00 0.00 1006.3
20260507021917 0 90 0.9 0.9 0.00 0.00 0.00 1006.0
20260507021112 0 90 0.9 0.9 0.00 0.00 0.00 1005.9
20260507020314 0 315 0.0 2.6 0.00 0.00 0.00 1006.0
20260507015510 0 315 0.9 2.6 0.00 0.00 0.00 1005.7
20260507014705 0 180 0.9 0.9 0.00 0.00 0.00 1005.4
20260507013904 0 135 0.9 1.7 0.00 0.00 0.00 1005.1
20260507013059 0 45 0.0 1.7 0.00 0.00 0.00 1005.1